Regional Weather Roundup
Issued by NWS Burlington, VT

Home | Current Version | Previous Version | Text Only | Print | Product List | Glossary On
Versions: 1 2 3 4 5 6 7 8 9 10 11 12 13 14 15 16 17 18 19 20 21 22 23 24 25 26 27 28 29 30 31 32 33 34 35 36 37 38 39 40 41 42 43 44 45 46 47 48 49 50
000
ASUS41 KBTV 291810
RWRBTV
VERMONT REGIONAL WEATHER ROUNDUP
NATIONAL WEATHER SERVICE BURLINGTON VT
200 PM EDT FRI APR 29 2016

NOTE: "FAIR" INDICATES FEW OR NO CLOUDS BELOW 12,000 FEET WITH NO
SIGNIFICANT WEATHER AND/OR OBSTRUCTIONS TO VISIBILITY.

* THESE REPORTS ARE NOT UNDER NWS QUALITY CONTROL AND/OR DO NOT
  REPORT WEATHER SUCH AS PRECIPITATION AND FOG.

VTZ001>019-291900-
_____VERMONT_____


CITY           SKY/WX    TMP DP  RH WIND       PRES   REMARKS
BURLINGTON     PTSUNNY   55  24  30 W6        30.09F
6HR MIN TEMP:  37; 6HR MAX TEMP:  55;

MONTPELIER     FAIR      52  25  35 VRB5      30.11F
6HR MIN TEMP:  32; 6HR MAX TEMP:  52;

MORRISVILLE    FAIR      54  22  28 VRB7      30.08F
6HR MIN TEMP:  30; 6HR MAX TEMP:  55;

ST. JOHNSBURY*   N/A     54  26  34 MISG      30.06F
6HR MIN TEMP:  30; 6HR MAX TEMP:  54;

LYNDONVILLE*   FAIR      50  25  37 CALM      30.09F
6HR MIN TEMP:  32; 6HR MAX TEMP:  52;

MIDDLEBURY*    FAIR      56  27  32 CALM      30.08S
6HR MIN TEMP:  35; 6HR MAX TEMP:  57;

RUTLAND*       FAIR      55  27  33 SE3       30.05F
6HR MIN TEMP:  39; 6HR MAX TEMP:  55;

SPRINGFIELD    FAIR      56  28  34 NE7       30.07F
6HR MIN TEMP:  37; 6HR MAX TEMP:  56;

HIGHGATE*      FAIR      52  19  27 N7        30.11F
6HR MIN TEMP:  35; 6HR MAX TEMP:  52;

NEWPORT*       FAIR      51  26  37 N6        30.09F
6HR MIN TEMP:  30; 6HR MAX TEMP:  51;

BENNINGTON     FAIR      60  35  39 S10       30.04F
6HR MIN TEMP:  43; 6HR MAX TEMP:  60;

SUTTON*          N/A     50 N/A N/A MISG        N/A

_____LAKE CHAMPLAIN_____


CITY           SKY/WX    TMP DP  RH WIND       PRES   REMARKS
COLCHESTER RF*   N/A     43  28  56 N12         N/A
DIAMOND ISL*     N/A     46  27  46 N10         N/A

$$

NYZ007-026>031-035-052-083-087-291900-
_____NORTHERN NEW YORK_____


CITY           SKY/WX    TMP DP  RH WIND       PRES   REMARKS
PLATTSBURGH    SUNNY     51  22  31 VRB6      30.11F
6HR MIN TEMP:  37; 6HR MAX TEMP:  52;

SARANAC LAKE   SUNNY     54  16  22 SW5       30.02F
6HR MIN TEMP:  35; 6HR MAX TEMP:  54;

MASSENA        SUNNY     52  17  25 NE13      30.12F
6HR MIN TEMP:  37; 6HR MAX TEMP:  53;

OGDENSBURG*    SUNNY     55  23  28 NE12      30.09F
POTSDAM*       SUNNY    -13 -33  36 NE10      30.08  WCI -32
WATERTOWN      SUNNY     57  27  31 N9        30.06S
6HR MIN TEMP:  39; 6HR MAX TEMP:  59;

FT DRUM        MOSUNNY   57  26  30 N8        30.04F
6HR MIN TEMP:  38; 6HR MAX TEMP:  57;

ALBANY         PTSUNNY   58  35  42 S12G18    30.06F
6HR MIN TEMP:  41; 6HR MAX TEMP:  59;

GLENS FALLS    SUNNY     58  33  39 SE6       30.06F
6HR MIN TEMP:  42; 6HR MAX TEMP:  58;


$$
NHZ002-005-011-291900-
_____NEW HAMPSHIRE_____


CITY           SKY/WX    TMP DP  RH WIND       PRES   REMARKS
LEBANON        SUNNY     57  29  34 VRB6      30.07F
6HR MIN TEMP:  38; 6HR MAX TEMP:  58;

KEENE          MOSUNNY   57  30  35 SW7       30.08F
6HR MIN TEMP:  41; 6HR MAX TEMP:  57;

PLYMOUTH       FAIR      55  26  33 E3        30.10F
6HR MIN TEMP:  36; 6HR MAX TEMP:  55;

WHITEFIELD     SUNNY     54  25  32 MISG      30.07F
6HR MIN TEMP:  35; 6HR MAX TEMP:  55;


$$

_____REGIONAL QUEBEC LOCATIONS_____


CITY           SKY/WX    TMP DP  RH WIND       PRES   REMARKS
MONTREAL       PTSUNNY   48  16  27 N8        30.14F
QUEBEC CITY    MOSUNNY   46  12  25 SE6       30.13F
SHERBROOKE     SUNNY     50  16  25 W10       30.10F

_____REGIONAL ONTARIO LOCATIONS_____


CITY           SKY/WX    TMP DP  RH WIND       PRES   REMARKS
OTTAWA         PTSUNNY   52  16  24 N7        30.12F

______KEY______
VSB  - VISIBILITY IN MILES
WCI  - WIND CHILL INDEX
HX   - HEAT INDEX
$$
NNNN




USA.gov is the U.S. government's official web portal to all federal, state and local government web resources and services.